Lockport-Weather Station Historical Data
Daily Summary for September 2, 2020 Units:  English    Metric   Both
Daily Weekly Monthly Yearly Custom
  High: Low: Average:
Temperature: 29.6 °F 28 °F 28.7 °F
Dew Point: 27 °F 25.7 °F 26.3 °F
Humidity: 91% 90% 91%
Wind Speed: 3.7mph 1mph 2.1mph
Wind Gust: 10mph - -
Wind- - WSW
Pressure: 29.84 in 29.68 in -
Precipitation: 0.00 in    
 
 
Tabular Data for September 2, 2020
Time Temperature Dew Point Pressure Wind Wind Speed Wind Gust Humidity Rainfall Rate (Hourly) solar
00:04 28.5 °F 26.2 °F 29.69 in West 2.7 mph 10 mph 91% 0.00 in W/m2
00:09 28.4 °F 26.1 °F 29.68 in West 2.8 mph 10 mph 91% 0.00 in W/m2
00:14 28.3 °F 26 °F 29.68 in WSW 2 mph 10 mph 91% 0.00 in W/m2
00:19 28.3 °F 26 °F 29.68 in West 2.5 mph 6 mph 91% 0.00 in W/m2
00:24 28.2 °F 25.9 °F 29.68 in West 2.5 mph 5 mph 91% 0.00 in W/m2
00:29 28.2 °F 25.9 °F 29.69 in WSW 2.2 mph 6 mph 91% 0.00 in W/m2
00:34 28.2 °F 25.9 °F 29.69 in West 2.6 mph 6 mph 91% 0.00 in W/m2
00:39 28.1 °F 25.8 °F 29.69 in West 2.8 mph 6 mph 91% 0.00 in W/m2
00:44 28 °F 25.7 °F 29.69 in WNW 2.9 mph 6 mph 91% 0.00 in W/m2
00:49 28 °F 25.7 °F 29.70 in West 2.5 mph 6 mph 91% 0.00 in W/m2
00:54 28 °F 25.7 °F 29.70 in West 2.5 mph 6 mph 91% 0.00 in W/m2
00:59 28 °F 25.7 °F 29.71 in WSW 2 mph 6 mph 91% 0.00 in W/m2
01:04 28 °F 25.7 °F 29.71 in WSW 2.1 mph 6 mph 91% 0.00 in W/m2
01:09 28 °F 25.7 °F 29.71 in West 1.8 mph 5 mph 91% 0.00 in W/m2
01:14 28 °F 25.7 °F 29.71 in West 1.9 mph 5 mph 91% 0.00 in W/m2
01:19 28.1 °F 25.8 °F 29.71 in SW 1.8 mph 5 mph 91% 0.00 in W/m2
01:24 28.1 °F 25.8 °F 29.70 in SW 1.9 mph 5 mph 91% 0.00 in W/m2
01:29 28.1 °F 25.8 °F 29.71 in SW 1.9 mph 5 mph 91% 0.00 in W/m2
01:34 28.1 °F 25.8 °F 29.72 in West 2.1 mph 6 mph 91% 0.00 in W/m2
01:39 28.1 °F 25.8 °F 29.72 in WNW 1.3 mph 6 mph 91% 0.00 in W/m2
01:44 28.1 °F 25.8 °F 29.73 in WSW 2.2 mph 6 mph 91% 0.00 in W/m2
01:49 28.2 °F 25.9 °F 29.73 in WSW 1.9 mph 5 mph 91% 0.00 in W/m2
01:54 28.2 °F 25.9 °F 29.73 in SW 1.6 mph 5 mph 91% 0.00 in W/m2
01:59 28.3 °F 26 °F 29.73 in WSW 1.8 mph 4 mph 91% 0.00 in W/m2
02:04 28.3 °F 26 °F 29.73 in WSW 1.4 mph 4 mph 91% 0.00 in W/m2
02:09 28.3 °F 26 °F 29.74 in WSW 1.9 mph 5 mph 91% 0.00 in W/m2
02:14 28.4 °F 26.1 °F 29.74 in WSW 1.4 mph 5 mph 91% 0.00 in W/m2
02:19 28.4 °F 26.1 °F 29.75 in WSW 1.3 mph 5 mph 91% 0.00 in W/m2
02:24 28.4 °F 26.1 °F 29.75 in WSW 1.3 mph 4 mph 91% 0.00 in W/m2
02:29 28.4 °F 26.1 °F 29.75 in SW 1.9 mph 4 mph 90.8% 0.00 in W/m2
02:34 28.5 °F 26.2 °F 29.75 in SW 1.1 mph 4 mph 91% 0.00 in W/m2
02:39 28.5 °F 26.2 °F 29.75 in WSW 2.1 mph 4 mph 90.8% 0.00 in W/m2
02:44 28.5 °F 26.1 °F 29.75 in West 2.1 mph 5 mph 90.8% 0.00 in W/m2
02:49 28.5 °F 26.1 °F 29.75 in West 1.6 mph 6 mph 90.6% 0.00 in W/m2
02:54 28.6 °F 26.3 °F 29.75 in WSW 3.7 mph 9 mph 90.9% 0.00 in W/m2
02:59 28.6 °F 26.3 °F 29.75 in West 2.6 mph 9 mph 91% 0.00 in W/m2
03:04 28.7 °F 26.3 °F 29.76 in West 2.2 mph 9 mph 90.8% 0.00 in W/m2
03:09 28.7 °F 26.1 °F 29.76 in West 2 mph 6 mph 90% 0.00 in W/m2
03:14 28.8 °F 26.2 °F 29.76 in WSW 2.2 mph 5 mph 90% 0.00 in W/m2
03:19 28.8 °F 26.2 °F 29.76 in WSW 1.9 mph 6 mph 90% 0.00 in W/m2
03:24 28.8 °F 26.2 °F 29.76 in SW 1.3 mph 6 mph 90% 0.00 in W/m2
03:29 28.9 °F 26.3 °F 29.76 in SW 1.8 mph 5 mph 90% 0.00 in W/m2
03:34 28.9 °F 26.3 °F 29.76 in WSW 1.8 mph 6 mph 90% 0.00 in W/m2
03:39 28.9 °F 26.3 °F 29.76 in WSW 2.3 mph 6 mph 90% 0.00 in W/m2
03:44 28.9 °F 26.3 °F 29.76 in WSW 1.1 mph 6 mph 90% 0.00 in W/m2
03:49 29 °F 26.4 °F 29.77 in West 2 mph 4 mph 90% 0.00 in W/m2
03:54 29 °F 26.4 °F 29.77 in WSW 1.8 mph 4 mph 90% 0.00 in W/m2
03:59 28.9 °F 26.3 °F 29.77 in WSW 1.6 mph 4 mph 90% 0.00 in W/m2
04:04 28.9 °F 26.3 °F 29.77 in WSW 1.7 mph 4 mph 90% 0.00 in W/m2
04:09 28.9 °F 26.3 °F 29.78 in WSW 1 mph 4 mph 90% 0.00 in W/m2
04:14 28.9 °F 26.3 °F 29.78 in WSW 1 mph 4 mph 90% 0.00 in W/m2
04:19 28.9 °F 26.3 °F 29.78 in WSW 1.2 mph 6 mph 90% 0.00 in W/m2
04:24 29 °F 26.4 °F 29.78 in West 2.1 mph 6 mph 90% 0.00 in W/m2
04:29 29 °F 26.4 °F 29.78 in WSW 3.2 mph 7 mph 90% 0.00 in W/m2
04:34 29.1 °F 26.5 °F 29.79 in WNW 2 mph 7 mph 90% 0.00 in W/m2
04:39 29.2 °F 26.6 °F 29.79 in WSW 2.4 mph 7 mph 90% 0.00 in W/m2
04:44 29.2 °F 26.6 °F 29.80 in West 1.3 mph 6 mph 90% 0.00 in W/m2
04:49 29.3 °F 26.7 °F 29.80 in WSW 1.3 mph 6 mph 90% 0.00 in W/m2
04:54 29.4 °F 26.8 °F 29.80 in West 2.4 mph 5 mph 90% 0.00 in W/m2
04:59 29.4 °F 26.8 °F 29.81 in NW 1.6 mph 5 mph 90% 0.00 in W/m2
05:04 29.5 °F 26.9 °F 29.81 in West 2.5 mph 5 mph 90% 0.00 in W/m2
05:09 29.5 °F 26.9 °F 29.81 in WSW 2.8 mph 7 mph 90% 0.00 in W/m2
05:14 29.6 °F 27 °F 29.81 in WSW 2.5 mph 7 mph 90% 0.00 in W/m2
05:19 29.6 °F 27 °F 29.81 in WSW 2.5 mph 10 mph 90% 0.00 in W/m2
05:24 29.6 °F 27 °F 29.82 in WSW 3.3 mph 10 mph 90% 0.00 in W/m2
05:29 29.6 °F 27 °F 29.82 in WSW 2.5 mph 10 mph 90% 0.00 in W/m2
05:34 29.5 °F 26.9 °F 29.82 in WSW 3 mph 10 mph 90% 0.00 in W/m2
05:39 29.5 °F 26.9 °F 29.83 in SW 2.8 mph 9 mph 90% 0.00 in W/m2
05:44 29.4 °F 26.8 °F 29.83 in WSW 2.3 mph 9 mph 90% 0.00 in W/m2
05:49 29.4 °F 26.8 °F 29.83 in SW 2 mph 7 mph 90% 0.00 in W/m2
05:54 29.3 °F 26.8 °F 29.83 in WSW 2.1 mph 7 mph 90.2% 0.00 in W/m2
05:59 29.3 °F 26.9 °F 29.84 in WSW 2.9 mph 6 mph 90.5% 0.00 in W/m2
Lockport, New York, USA
Compliments of Weather Underground - 1.5 mb